Vorticity
7 7 6 7 5 6 10 6 2 7 7 -1 4 19 21 17 15 11 11 14 12 12 10 8 8 8 8 7 6 6 7 7 8 8 9 10 10 10 9 9 10 10 11 11 11 12 12 11 11 11 10 10 9 9 9 8 7 7 6 5 5 5 6 6 7 8 8 9 9 7 7 7 6 6 5 4 4 4 4 4 5 5 5 5 4
4 6 5 8 11 9 6 7 9 12 12 9 11 13 13 17 17 11 8 7 5 5 5 5 6 7 10 11 9 7 7 8 9 10 11 13 13 12 12 12 12 11 11 11 10 11 12 12 11 10 9 9 9 10 9 9 8 7 7 7 6 5 5 5 4 5 5 6 7 7 7 7 7 7 7 7 6 5 5 5 5 5 5 5 5
3 6 8 10 10 10 9 6 7 11 13 13 12 7 8 14 13 9 9 7 5 5 6 7 8 9 11 12 10 9 7 6 6 7 8 9 10 11 12 13 12 11 10 9 10 11 11 10 9 8 7 7 7 7 7 7 8 9 10 10 9 8 6 5 4 3 3 2 3 4 5 5 5 5 5 5 6 5 5 5 5 5 6 6 6
2 6 11 12 9 8 9 9 12 14 10 7 6 5 9 12 7 4 6 9 11 12 10 10 10 10 11 11 10 10 9 8 7 5 4 5 6 7 7 8 8 7 6 5 6 8 8 7 4 2 3 5 7 7 8 8 7 7 7 8 8 8 8 8 7 5 4 3 3 2 3 3 3 4 4 3 4 4 5 5 5 5 4 5 5
1 5 8 9 10 10 11 14 14 10 6 8 8 8 11 11 5 2 5 8 10 10 11 12 11 10 10 9 9 8 7 9 8 5 5 6 5 4 6 9 8 6 5 5 5 6 7 6 3 -1 -1 0 3 7 11 13 12 8 5 4 5 6 8 9 9 9 9 9 8 6 5 5 4 4 4 4 5 6 7 8 9 9 8 7 6
1 1 5 8 11 11 13 17 14 7 9 14 14 12 10 9 6 6 8 10 10 9 11 9 6 6 7 8 9 7 6 7 7 6 8 7 4 4 6 7 6 4 3 4 5 4 5 6 3 1 -0 0 1 3 6 9 11 10 7 5 4 3 3 3 3 4 6 8 9 10 10 10 9 7 6 6 6 5 5 5 5 7 9 10 11
5 2 2 7 12 11 8 8 6 4 7 10 8 3 1 4 6 7 9 10 10 10 8 5 3 4 6 8 8 6 4 4 4 6 9 8 5 6 8 8 8 7 3 1 2 2 2 3 3 2 1 3 4 3 1 1 1 2 1 -0 -1 -2 -2 -3 -2 -0 2 3 3 5 7 8 9 9 8 7 7 4 -0 -4 -5 -2 1 4 6
6 6 3 3 8 9 2 -2 -1 1 3 5 4 2 1 3 7 10 13 12 10 8 5 4 4 5 6 9 10 9 8 7 5 6 10 11 10 9 6 4 6 5 1 2 5 8 7 5 4 3 2 2 3 3 2 1 0 1 2 2 2 2 1 2 3 4 3 2 1 1 2 3 3 4 4 3 2 1 -3 -5 -4 -1 -0 -0 0
7 6 4 2 3 5 2 -3 -4 0 4 6 7 8 11 13 12 12 15 15 10 6 6 7 9 11 10 8 6 6 9 12 10 7 7 8 11 11 4 0 4 3 -2 -0 5 10 12 11 10 9 7 4 3 1 -1 -0 2 4 5 6 7 7 7 7 8 7 6 5 5 4 3 3 2 2 2 1 0 -2 -3 -2 -0 1 2 2 1
5 6 7 5 3 3 4 1 -1 -0 3 6 8 8 12 18 16 9 9 15 10 2 6 13 12 6 -0 -3 -1 2 4 8 8 9 16 16 10 4 -3 -5 1 3 0 4 9 9 6 7 8 7 6 6 3 -1 -3 -1 4 6 5 5 6 6 7 7 6 5 4 3 3 2 2 2 2 2 3 3 4 3 2 1 2 2 3 4 4
3 3 3 4 3 3 3 3 3 2 3 6 5 -0 -0 7 8 3 5 14 12 2 3 7 3 0 -0 -0 5 9 10 13 9 8 24 31 20 12 13 13 14 15 14 15 15 10 3 2 4 4 4 4 2 0 -1 -0 4 6 5 4 5 6 7 7 6 6 5 4 4 5 6 6 5 5 5 6 7 8 9 9 8 7 6 6 6
8 7 5 2 2 3 4 5 4 3 4 5 2 -1 1 3 3 3 7 14 13 4 1 -2 -5 -2 1 -2 -3 -3 2 11 8 -0 7 15 10 6 11 14 13 12 11 9 7 4 2 1 1 2 3 4 3 3 3 2 5 7 7 8 8 8 9 9 9 9 9 10 10 10 12 13 12 9 8 8 9 9 10 10 9 8 9 10 9
7 9 10 9 7 6 6 6 6 5 4 4 2 2 4 3 1 3 7 13 13 5 -2 -2 -0 -0 -1 -1 1 0 -1 4 7 3 1 1 -3 -9 -10 -5 1 4 6 7 6 4 2 1 1 2 4 5 6 7 8 8 10 10 11 11 11 11 11 10 10 10 9 10 10 10 11 12 13 12 11 11 12 11 10 8 6 7 9 11 10
10 10 9 10 12 12 12 11 11 9 7 7 6 4 4 5 4 5 6 10 16 11 -3 -7 1 11 12 9 9 8 4 2 2 5 8 11 13 12 8 8 11 12 13 15 14 11 8 7 6 6 7 8 9 10 10 11 11 11 11 11 11 11 10 9 9 9 9 10 9 9 9 9 10 11 11 12 13 14 13 12 11 11 10 10 9
8 6 3 3 6 10 12 13 13 14 13 11 10 9 9 9 8 5 1 0 6 9 3 -2 4 11 12 9 10 11 9 7 5 4 4 5 11 18 20 18 15 14 16 16 15 13 10 8 7 5 4 6 6 7 6 6 6 7 7 8 9 9 9 9 9 9 9 10 9 9 9 9 9 9 9 10 12 14 14 15 15 15 14 13 11
2 3 4 5 8 12 16 18 18 18 18 16 14 13 12 10 9 8 6 4 5 4 4 8 12 10 8 8 7 4 4 7 10 10 6 4 5 7 10 11 9 9 9 5 2 5 8 10 11 11 9 6 3 2 1 1 2 3 5 7 8 9 10 10 10 10 10 10 10 10 10 10 11 11 11 11 11 11 12 14 15 16 16 17 17
1 2 2 2 5 8 9 11 12 15 17 18 17 16 16 13 10 8 8 11 15 14 9 5 1 -3 -3 -3 -5 -2 6 7 4 4 6 6 4 3 3 3 3 3 2 -3 -6 -1 7 11 13 14 15 12 8 5 4 4 5 6 6 7 8 9 11 11 11 11 11 10 10 11 11 12 12 13 13 12 11 10 10 9 9 10 10 11 13
1 0 1 1 4 5 3 1 3 8 12 15 16 17 18 16 12 12 11 4 5 18 28 23 13 4 0 0 2 5 5 -1 -6 -3 3 5 6 5 3 3 3 3 4 2 -1 0 5 8 8 7 7 6 6 7 8 9 10 10 10 9 9 9 10 10 11 11 11 12 12 13 13 13 13 12 11 11 10 9 8 7 7 6 6 7 9
1 1 2 3 4 6 7 5 5 6 7 9 12 14 16 15 11 11 14 6 -3 1 8 9 12 14 12 12 15 12 6 2 -1 -1 1 4 7 8 5 4 5 5 5 5 5 4 6 8 6 2 -0 -1 0 1 3 5 6 8 11 11 11 11 10 11 11 12 12 13 13 13 13 12 12 11 10 10 9 9 9 9 9 9 10 11 12
11 12 14 15 15 15 15 13 12 12 10 7 7 9 12 16 15 12 14 16 9 -0 -8 -10 -0 10 10 5 3 3 6 7 5 5 9 13 13 13 12 12 11 10 10 10 9 9 9 8 6 4 2 1 1 -0 -0 1 2 4 9 12 12 11 10 11 12 12 13 13 13 13 13 11 10 9 9 9 9 9 10 11 13 15 16 16 17
18 18 17 14 13 13 14 14 14 17 18 13 8 7 8 10 14 16 16 17 18 16 11 8 9 9 9 12 13 10 8 8 9 12 16 15 12 10 10 10 8 8 9 9 8 9 8 6 7 7 4 2 2 1 1 2 4 7 10 12 13 12 11 11 12 14 14 15 15 14 12 11 9 9 9 9 10 11 13 14 14 15 16 15 15
12 14 14 12 11 12 13 14 12 12 16 17 13 10 7 3 5 8 8 9 11 12 10 14 17 12 5 10 15 10 3 4 9 10 9 7 5 6 9 9 8 7 6 6 6 5 5 6 6 3 0 -0 0 2 3 4 6 9 12 14 13 12 12 11 12 14 15 15 15 13 11 10 9 10 11 12 13 13 14 14 14 14 13 13 12
9 10 10 10 11 12 10 10 11 10 13 17 18 17 14 9 5 4 4 3 4 4 2 5 11 12 8 7 8 5 1 2 3 5 8 8 6 6 7 6 5 6 4 4 6 7 9 8 -0 -8 -4 5 8 8 9 9 10 12 14 15 13 12 12 12 13 14 14 14 13 11 9 9 10 12 13 13 13 13 12 12 12 11 11 10 10
6 5 4 2 2 2 1 0 3 4 5 8 13 17 19 17 13 10 9 6 4 4 1 -5 -6 -2 1 1 1 3 5 5 4 5 10 10 8 8 8 6 7 6 4 7 12 12 10 2 -15 -18 -1 14 14 12 13 14 14 15 14 13 12 12 12 13 14 14 14 14 12 10 10 10 11 11 11 10 9 10 10 10 10 10 10 10 9
10 9 9 9 8 9 9 7 6 5 4 4 4 5 9 14 16 17 16 14 10 6 4 1 0 -0 -1 -3 -4 -2 0 1 -1 -1 0 5 11 15 13 10 8 5 5 11 13 9 4 -6 -18 -11 9 15 11 12 15 14 14 13 13 12 13 13 14 14 15 15 15 14 12 10 10 10 9 9 9 8 8 9 9 9 8 8 9 9 9
11 9 8 8 8 9 10 12 12 12 12 11 10 8 6 6 8 11 13 15 15 15 15 15 14 12 13 12 9 8 10 9 6 7 13 19 19 15 8 5 5 6 9 12 9 4 -1 -9 -12 -1 12 12 10 14 15 13 13 13 12 14 15 15 15 15 16 16 15 12 10 10 9 9 8 8 8 9 10 10 9 8 9 9 9 9 10
10 8 7 7 7 7 7 7 8 9 10 10 11 13 13 12 11 10 10 10 11 13 17 19 18 17 16 16 16 15 15 13 14 19 24 22 13 5 2 1 0 1 2 1 -1 -2 -4 -7 -2 9 13 12 14 15 14 13 15 14 14 16 16 17 18 19 17 15 13 11 11 10 9 9 9 9 10 10 10 10 9 9 9 10 11 12 13
14 13 13 12 11 12 12 12 11 10 8 7 7 7 10 14 14 10 8 8 7 7 8 9 9 7 3 2 6 5 6 15 24 21 12 6 3 -1 -5 -7 -10 -10 -8 -8 -6 -2 0 4 10 14 14 15 16 16 15 16 16 16 17 18 19 20 20 18 15 14 13 12 11 10 10 11 11 11 11 12 12 11 11 10 11 12 13 13 14
15 15 15 15 15 15 14 14 15 15 13 13 13 9 8 10 9 5 7 12 12 13 14 13 13 13 10 6 5 1 -1 7 14 8 -1 0 -0 -7 -9 -4 0 1 3 6 9 12 13 14 16 15 16 18 17 16 17 17 16 18 19 19 20 19 16 14 13 12 10 9 10 12 14 15 14 13 12 12 11 10 9 10 12 12 13 14 15
13 14 13 12 12 12 11 11 12 12 13 14 15 15 15 14 10 9 13 15 12 13 19 20 19 18 15 12 16 18 11 3 -2 -6 -8 -8 -5 -0 10 17 14 11 13 17 18 17 16 16 18 19 19 19 19 19 18 17 17 18 18 17 16 14 13 12 10 8 10 14 17 18 17 14 12 11 9 8 8 8 10 12 13 15 19 23 26
17 17 17 16 14 12 11 10 9 9 10 11 12 12 14 16 15 15 17 14 9 9 9 6 4 7 8 8 15 23 21 16 14 13 10 11 17 20 16 8 1 2 9 13 13 14 18 20 20 21 21 21 21 18 15 14 15 15 13 13 13 12 11 10 10 14 20 22 19 15 11 8 7 7 7 8 10 13 16 19 22 27 30 31 29
26 25 24 26 26 24 20 17 15 13 11 10 11 11 10 12 14 15 16 18 17 15 11 3 -2 -2 -0 1 7 16 23 23 20 16 14 15 13 1 -10 -8 2 8 13 18 22 23 22 21 20 21 22 22 19 14 13 13 12 12 13 14 12 11 12 15 20 24 22 15 9 7 6 7 8 8 9 12 17 23 28 30 31 30 27 23 21
28 28 28 30 33 36 35 32 29 26 22 17 15 14 12 11 10 9 12 15 15 13 15 16 13 6 -1 -8 -12 -7 3 6 3 -1 -6 -10 -12 -11 -6 6 17 21 24 29 30 25 19 18 21 22 21 18 14 12 13 13 13 13 14 13 11 14 20 24 24 18 10 5 4 5 7 10 11 11 14 22 30 34 33 28 24 21 19 20 20
34 26 23 23 27 31 35 38 37 35 33 29 25 22 20 17 14 12 12 13 15 12 10 13 16 16 14 6 -6 -12 -13 -14 -14 -13 -13 -12 -2 10 14 16 20 23 21 19 17 16 17 19 21 19 17 14 13 13 13 14 14 14 12 12 17 24 26 22 13 5 4 5 4 4 9 12 12 16 25 34 36 30 23 19 18 19 19 17 12
44 36 28 22 18 17 20 27 31 33 33 33 32 31 29 25 22 19 15 13 15 14 11 10 12 14 18 20 16 12 8 4 3 6 9 13 17 16 15 18 21 15 8 8 11 14 17 18 17 16 15 14 13 13 14 13 13 13 14 20 26 25 17 9 3 3 5 4 2 6 13 14 17 26 35 35 27 20 17 18 18 16 12 8 6
30 35 34 31 28 22 15 13 16 21 27 30 30 30 31 31 30 28 25 21 16 14 17 18 13 8 12 19 22 23 23 21 19 17 14 14 15 13 14 17 14 7 6 11 13 12 14 16 16 15 14 14 13 12 13 13 14 17 22 26 23 14 5 2 3 4 4 2 4 10 15 18 26 34 34 27 21 18 16 14 11 8 8 8 7
23 26 29 30 30 30 26 20 15 12 13 17 23 26 29 32 34 33 31 30 26 25 28 30 25 18 16 12 10 16 23 24 23 22 20 18 17 15 12 9 7 7 11 12 10 12 15 14 12 12 12 11 12 13 15 17 20 23 24 20 11 5 3 3 3 4 4 3 6 12 19 27 33 34 27 21 18 14 10 8 7 8 10 9 8
20 22 25 26 26 25 25 24 21 18 14 11 11 13 17 22 27 30 31 33 32 27 23 25 32 37 35 22 10 12 18 18 15 16 16 11 6 6 8 8 8 10 13 12 12 14 14 10 9 10 10 10 13 18 21 22 23 21 17 10 4 3 4 2 2 5 5 3 6 17 29 35 34 28 21 17 13 9 7 8 9 9 9 10 14
10 13 19 29 33 29 24 21 20 22 23 22 18 15 13 12 15 19 24 29 32 30 24 20 21 24 24 20 16 14 13 11 7 6 3 -0 1 7 10 8 7 11 15 15 13 12 11 9 9 10 12 16 21 23 22 20 19 16 10 5 4 4 4 2 4 6 4 2 7 23 38 40 31 21 17 13 8 7 9 9 9 12 13 15 18
10 13 17 29 41 43 35 28 23 17 17 22 25 23 21 17 15 15 18 21 26 31 31 26 20 12 8 8 9 9 11 12 9 5 4 5 6 6 3 2 9 17 18 14 12 11 10 9 11 15 20 23 23 21 18 16 14 10 6 4 4 4 2 3 5 6 5 2 6 22 43 47 31 14 10 9 6 9 13 12 10 13 16 18 18
14 19 26 38 50 50 39 31 30 27 23 24 25 25 26 27 22 18 16 17 23 32 32 22 12 7 5 5 3 -1 1 7 7 2 3 6 5 2 3 10 19 21 15 11 11 11 9 12 19 24 24 22 18 16 14 12 10 7 5 5 4 2 2 5 6 6 6 3 2 13 37 53 42 17 5 7 11 13 14 12 10 13 17 19 17
15 23 36 42 41 38 32 26 24 26 28 29 29 29 31 31 27 23 20 15 20 34 36 19 6 6 12 20 23 16 7 4 2 -3 -4 -0 2 6 14 21 22 17 11 10 11 12 15 22 27 24 19 16 14 11 10 10 9 7 5 4 3 2 3 5 6 6 6 5 2 2 18 43 52 34 13 8 14 16 11 7 9 16 19 17 15
15 27 44 41 21 12 17 16 10 9 15 22 25 26 28 29 27 24 20 13 18 35 36 13 -3 -0 5 9 19 24 19 15 16 15 13 15 19 23 26 24 17 12 12 12 13 17 23 27 24 18 13 12 10 9 10 10 8 6 5 3 2 2 3 3 5 6 6 5 4 0 3 21 43 46 29 13 11 13 10 5 6 15 20 15 10
12 20 38 43 32 21 19 18 15 11 9 10 14 19 24 27 23 21 20 14 16 34 37 10 -13 -8 2 2 4 11 12 12 18 23 24 27 29 27 23 17 13 14 15 16 18 24 26 23 17 12 9 9 9 9 9 9 7 6 5 3 1 2 4 3 3 5 6 6 5 3 -1 4 21 38 42 30 16 10 9 7 6 12 17 16 10
11 10 17 29 40 41 35 28 24 21 17 16 16 14 17 23 26 30 34 25 17 31 42 16 -20 -21 2 13 11 8 3 3 9 16 20 25 28 25 20 18 17 18 19 20 22 24 21 14 10 9 8 8 9 9 8 9 8 6 4 3 2 2 3 3 3 3 5 6 6 5 3 1 3 15 31 38 32 20 11 6 7 10 13 13 12
11 9 6 10 21 33 38 34 26 23 28 34 30 23 29 43 47 43 41 37 31 39 48 26 -10 -19 -5 4 6 6 7 12 22 30 30 29 27 24 21 21 19 18 20 21 20 17 12 8 7 8 7 7 9 9 8 8 8 6 4 3 3 2 2 4 4 3 3 5 6 5 5 5 2 2 8 22 34 35 25 12 5 4 6 8 9
11 11 10 7 7 16 28 31 23 18 24 37 44 44 45 46 39 32 38 45 42 38 37 25 5 -2 6 15 23 31 35 36 38 36 30 26 25 24 20 18 16 16 18 17 12 9 8 7 6 6 7 8 10 10 8 7 7 7 5 4 3 3 3 3 3 4 4 4 5 5 6 6 6 4 2 5 16 29 35 29 17 7 2 2 3
12 9 10 11 8 8 14 21 24 21 21 33 50 52 33 11 5 10 17 20 16 13 12 6 -2 -0 14 24 28 33 37 36 31 26 24 24 25 19 12 9 12 15 15 12 8 7 7 6 5 6 9 10 10 9 8 7 6 6 6 5 4 4 3 2 2 4 5 4 4 5 6 6 6 6 5 3 3 10 23 33 34 25 14 5 2
9 6 5 8 12 11 9 11 17 20 20 28 40 36 11 -5 3 14 14 9 7 5 1 -0 4 15 22 17 10 14 21 20 17 20 22 19 13 8 6 9 15 16 12 8 7 6 6 6 8 8 9 10 9 8 8 7 7 7 7 6 5 4 3 3 2 2 4 6 5 4 4 6 6 6 6 6 4 3 7 16 28 35 32 23 13
11 7 4 4 8 12 12 11 11 12 14 21 32 32 16 4 7 10 6 3 1 -1 0 10 20 22 13 4 7 18 20 12 11 18 18 9 4 7 11 14 16 13 8 7 8 8 7 9 10 9 9 9 9 8 8 7 8 7 6 5 5 4 4 2 2 2 2 4 5 5 4 4 5 5 6 6 6 5 4 4 10 22 32 35 31
18 18 15 11 9 10 12 13 13 13 11 11 17 25 26 23 20 17 13 8 3 3 10 19 18 12 8 12 18 20 15 11 12 12 7 4 8 14 15 14 14 12 9 8 8 8 9 9 8 8 8 9 9 9 9 8 8 7 6 6 5 5 4 2 2 3 2 2 3 5 6 5 4 4 5 6 7 7 6 4 3 7 15 25 33
Height
5740 5741 5742 5741 5741 5740 5740 5740 5741 5741 5742 5742 5741 5741 5741 5742 5742 5743 5744 5744 5745 5746 5746 5747 5747 5748 5748 5749 5749 5749 5750 5750 5750 5750 5750 5750 5750 5750 5750 5751 5751 5751 5751 5751 5750 5750 5751 5751 5751 5751 5751 5751 5751 5751 5752 5752 5752 5752 5752 5752 5753 5753 5753 5753 5753 5753 5753 5753 5753 5753 5753 5753 5753 5752 5752 5752 5752 5751 5751 5751 5751 5750 5750 5749 5749
5738 5739 5739 5739 5738 5739 5739 5739 5739 5739 5739 5740 5740 5740 5740 5740 5740 5741 5741 5742 5743 5744 5744 5745 5745 5745 5746 5746 5747 5747 5747 5747 5747 5747 5748 5748 5748 5748 5748 5749 5749 5749 5749 5749 5749 5749 5749 5749 5749 5749 5750 5750 5750 5750 5750 5750 5750 5750 5751 5751 5751 5751 5751 5751 5752 5752 5752 5752 5751 5751 5751 5751 5751 5750 5750 5750 5750 5750 5749 5749 5749 5748 5748 5748 5747
5736 5736 5737 5736 5736 5736 5737 5738 5739 5738 5738 5738 5738 5738 5738 5739 5739 5739 5739 5740 5741 5741 5742 5742 5742 5743 5743 5744 5744 5744 5744 5744 5745 5745 5745 5746 5746 5746 5746 5747 5747 5747 5747 5747 5747 5747 5748 5748 5748 5748 5748 5748 5748 5749 5749 5749 5749 5749 5749 5749 5749 5749 5749 5749 5749 5750 5750 5750 5750 5749 5749 5749 5749 5748 5748 5748 5747 5747 5747 5747 5746 5746 5746 5745 5745
5733 5734 5734 5734 5733 5734 5735 5736 5737 5737 5736 5736 5735 5736 5736 5736 5737 5737 5738 5738 5738 5738 5739 5739 5740 5740 5740 5741 5741 5742 5742 5742 5743 5743 5743 5743 5744 5744 5744 5744 5744 5745 5745 5746 5746 5746 5746 5746 5746 5746 5746 5746 5746 5747 5747 5746 5746 5747 5747 5747 5747 5747 5746 5746 5746 5746 5747 5747 5747 5747 5747 5747 5746 5746 5746 5745 5745 5744 5744 5744 5744 5744 5743 5743 5742
5730 5731 5731 5731 5731 5731 5733 5734 5734 5735 5734 5734 5733 5733 5734 5734 5734 5735 5735 5735 5735 5735 5735 5736 5736 5737 5737 5737 5738 5739 5739 5740 5740 5740 5741 5741 5742 5741 5741 5741 5742 5742 5743 5743 5744 5744 5744 5744 5744 5744 5744 5744 5744 5744 5744 5744 5744 5744 5744 5744 5744 5744 5744 5744 5744 5743 5743 5743 5743 5743 5743 5743 5743 5743 5743 5742 5742 5741 5741 5740 5740 5740 5740 5740 5739
5727 5728 5728 5729 5729 5729 5730 5731 5731 5732 5732 5732 5731 5732 5732 5732 5732 5732 5732 5732 5732 5732 5731 5732 5733 5733 5733 5734 5734 5735 5736 5736 5737 5737 5737 5738 5739 5739 5739 5739 5739 5739 5740 5741 5741 5741 5742 5742 5742 5741 5741 5742 5742 5742 5742 5742 5742 5742 5742 5742 5742 5742 5742 5741 5741 5741 5740 5740 5740 5740 5739 5739 5739 5739 5739 5738 5738 5738 5737 5737 5737 5736 5736 5737 5736
5724 5725 5725 5726 5727 5727 5728 5728 5728 5729 5729 5729 5729 5729 5729 5729 5729 5729 5728 5728 5729 5728 5728 5728 5729 5730 5730 5730 5731 5732 5733 5733 5733 5733 5734 5734 5735 5735 5736 5736 5736 5736 5736 5737 5737 5738 5738 5739 5739 5739 5739 5739 5739 5739 5739 5739 5739 5740 5739 5739 5739 5739 5739 5738 5738 5738 5737 5736 5736 5736 5736 5735 5735 5735 5734 5734 5734 5734 5733 5733 5733 5732 5732 5732 5732
5721 5722 5722 5723 5724 5724 5725 5725 5725 5725 5725 5726 5726 5726 5726 5725 5725 5724 5724 5724 5724 5724 5724 5725 5726 5727 5727 5727 5727 5728 5729 5729 5729 5730 5730 5730 5730 5731 5732 5732 5732 5732 5732 5733 5733 5734 5734 5735 5735 5735 5735 5736 5736 5736 5736 5736 5736 5736 5736 5736 5736 5736 5735 5735 5734 5734 5733 5733 5732 5732 5732 5732 5731 5731 5730 5730 5729 5729 5729 5728 5728 5727 5727 5727 5727
5718 5719 5719 5720 5720 5721 5722 5722 5722 5722 5722 5723 5723 5723 5722 5721 5720 5720 5720 5720 5720 5720 5720 5721 5722 5723 5723 5724 5724 5724 5724 5725 5725 5725 5726 5727 5727 5727 5727 5728 5728 5728 5728 5729 5729 5730 5730 5731 5731 5732 5732 5732 5732 5732 5732 5732 5732 5732 5732 5732 5732 5732 5731 5731 5730 5730 5729 5728 5728 5729 5729 5728 5727 5726 5726 5725 5725 5724 5723 5723 5722 5722 5721 5720 5720
5714 5715 5716 5716 5716 5717 5717 5718 5718 5718 5719 5720 5720 5720 5719 5718 5717 5717 5717 5717 5716 5717 5717 5718 5719 5719 5719 5719 5720 5720 5721 5722 5722 5721 5722 5723 5723 5723 5724 5724 5724 5724 5725 5725 5726 5726 5727 5727 5727 5727 5728 5728 5728 5728 5728 5728 5727 5727 5727 5727 5727 5727 5727 5726 5726 5725 5724 5723 5723 5724 5724 5724 5723 5721 5720 5720 5719 5719 5718 5717 5716 5716 5715 5714 5713
5709 5710 5711 5712 5712 5712 5712 5713 5713 5713 5714 5715 5716 5716 5715 5714 5713 5713 5714 5713 5713 5714 5714 5715 5715 5715 5714 5714 5715 5716 5717 5719 5718 5718 5719 5719 5720 5720 5720 5721 5721 5721 5722 5722 5722 5723 5723 5723 5723 5723 5723 5723 5723 5723 5722 5722 5722 5722 5722 5722 5722 5721 5721 5721 5720 5720 5719 5718 5718 5717 5718 5718 5717 5714 5713 5713 5713 5712 5712 5711 5710 5709 5709 5708 5707
5702 5703 5705 5706 5706 5706 5707 5707 5708 5708 5708 5709 5710 5710 5710 5710 5709 5709 5709 5710 5710 5711 5711 5711 5712 5712 5711 5710 5711 5712 5713 5714 5714 5715 5715 5716 5717 5717 5717 5718 5718 5718 5718 5719 5719 5719 5719 5719 5719 5719 5718 5718 5718 5717 5717 5717 5717 5717 5717 5717 5717 5716 5715 5715 5715 5714 5713 5712 5712 5711 5711 5712 5710 5708 5706 5706 5705 5705 5704 5704 5703 5703 5702 5702 5701
5696 5696 5697 5699 5699 5700 5700 5701 5701 5702 5702 5703 5704 5704 5704 5704 5704 5705 5705 5706 5706 5706 5707 5707 5708 5708 5708 5708 5708 5708 5708 5709 5709 5710 5711 5712 5713 5713 5713 5713 5714 5714 5714 5715 5715 5715 5715 5715 5715 5714 5714 5714 5713 5713 5712 5712 5711 5711 5711 5711 5711 5710 5710 5709 5708 5708 5707 5706 5705 5705 5705 5704 5703 5701 5700 5699 5698 5697 5697 5696 5696 5695 5695 5694 5693
5690 5690 5690 5691 5692 5693 5693 5694 5694 5695 5696 5697 5697 5698 5698 5698 5699 5700 5701 5701 5702 5702 5702 5703 5703 5703 5703 5703 5704 5703 5703 5704 5704 5704 5705 5706 5707 5708 5708 5708 5709 5709 5709 5710 5710 5711 5710 5710 5710 5709 5709 5709 5708 5708 5707 5707 5706 5705 5705 5705 5705 5704 5703 5703 5702 5701 5701 5700 5699 5698 5697 5697 5696 5695 5693 5692 5691 5690 5689 5688 5687 5687 5687 5686 5685
5683 5683 5684 5685 5685 5686 5687 5687 5687 5688 5689 5690 5691 5691 5692 5692 5693 5694 5695 5696 5696 5696 5696 5696 5697 5697 5697 5698 5698 5699 5699 5699 5699 5699 5699 5699 5700 5701 5702 5702 5703 5704 5704 5704 5705 5705 5705 5705 5704 5704 5704 5704 5703 5703 5702 5701 5701 5700 5699 5699 5698 5698 5697 5696 5695 5694 5694 5693 5692 5691 5690 5689 5688 5687 5685 5684 5684 5682 5681 5680 5679 5679 5678 5677 5677
5676 5677 5677 5677 5678 5679 5679 5680 5681 5681 5682 5682 5683 5685 5686 5686 5687 5688 5689 5689 5689 5690 5690 5690 5691 5691 5692 5692 5693 5694 5694 5695 5694 5695 5695 5694 5694 5695 5695 5696 5697 5698 5698 5699 5699 5699 5699 5699 5699 5699 5699 5699 5698 5697 5697 5696 5695 5694 5693 5692 5692 5691 5690 5689 5688 5687 5686 5685 5684 5683 5682 5681 5680 5679 5678 5677 5676 5674 5673 5672 5671 5670 5670 5669 5668
5669 5670 5670 5671 5671 5672 5672 5673 5673 5674 5675 5676 5676 5678 5679 5680 5681 5682 5683 5683 5683 5683 5683 5684 5684 5685 5686 5687 5688 5689 5689 5689 5689 5690 5690 5690 5690 5691 5691 5692 5692 5693 5693 5694 5694 5694 5694 5694 5694 5694 5693 5693 5692 5692 5691 5690 5689 5688 5687 5686 5685 5685 5683 5682 5681 5680 5679 5678 5677 5676 5674 5673 5672 5671 5670 5669 5667 5666 5665 5664 5663 5662 5661 5661 5660
5662 5663 5663 5664 5665 5665 5665 5666 5666 5667 5668 5669 5670 5671 5672 5673 5673 5675 5676 5677 5678 5679 5678 5677 5678 5680 5681 5681 5682 5683 5683 5683 5683 5684 5685 5685 5686 5686 5687 5687 5687 5688 5688 5688 5688 5689 5689 5689 5688 5688 5687 5687 5687 5686 5685 5684 5683 5682 5681 5680 5679 5678 5677 5676 5674 5673 5672 5670 5669 5668 5667 5666 5664 5663 5662 5661 5660 5659 5657 5656 5655 5654 5653 5652 5651
5653 5654 5655 5655 5656 5657 5658 5658 5659 5660 5661 5662 5663 5664 5665 5666 5667 5668 5669 5671 5672 5673 5672 5671 5672 5675 5677 5677 5674 5675 5676 5677 5678 5678 5679 5679 5680 5681 5681 5682 5682 5682 5682 5682 5682 5682 5682 5682 5682 5682 5681 5681 5680 5680 5679 5678 5676 5676 5675 5673 5672 5671 5670 5669 5667 5666 5664 5663 5662 5660 5659 5658 5657 5655 5654 5653 5652 5651 5649 5648 5646 5645 5644 5643 5641
5644 5645 5645 5646 5646 5647 5649 5650 5651 5653 5654 5654 5655 5657 5658 5659 5660 5661 5662 5664 5665 5665 5665 5665 5665 5668 5672 5671 5668 5668 5670 5671 5672 5672 5672 5673 5674 5675 5676 5676 5676 5676 5676 5676 5676 5676 5676 5676 5675 5675 5675 5674 5674 5673 5672 5671 5669 5668 5667 5666 5665 5664 5663 5662 5660 5659 5657 5656 5654 5653 5651 5650 5649 5648 5646 5645 5644 5642 5641 5639 5637 5636 5635 5634 5632
5636 5636 5636 5637 5637 5638 5640 5641 5642 5644 5646 5647 5648 5649 5651 5652 5653 5654 5655 5656 5658 5658 5659 5659 5660 5661 5663 5664 5663 5663 5664 5664 5665 5665 5666 5667 5668 5669 5670 5670 5670 5670 5670 5670 5670 5669 5669 5669 5669 5669 5669 5668 5667 5666 5665 5664 5662 5661 5660 5659 5658 5657 5655 5654 5653 5651 5650 5648 5647 5645 5644 5643 5641 5640 5639 5637 5635 5634 5632 5630 5629 5627 5626 5625 5623
5627 5628 5628 5628 5629 5629 5630 5632 5633 5635 5637 5639 5640 5642 5643 5644 5646 5647 5648 5649 5651 5653 5655 5654 5654 5654 5655 5656 5657 5657 5658 5658 5658 5659 5660 5661 5662 5663 5664 5664 5664 5664 5664 5664 5663 5663 5663 5663 5663 5663 5662 5661 5661 5660 5658 5657 5656 5654 5653 5652 5650 5649 5648 5646 5645 5643 5642 5641 5639 5638 5637 5635 5634 5633 5631 5629 5628 5626 5624 5622 5621 5619 5617 5616 5615
5619 5620 5620 5620 5621 5621 5622 5623 5624 5626 5627 5629 5631 5633 5635 5637 5638 5639 5641 5642 5644 5648 5650 5648 5647 5647 5648 5649 5650 5650 5651 5651 5652 5653 5654 5655 5655 5656 5657 5657 5658 5658 5658 5657 5657 5657 5657 5656 5656 5656 5655 5654 5653 5652 5651 5650 5649 5647 5646 5645 5643 5642 5640 5639 5637 5636 5635 5633 5632 5631 5629 5628 5627 5625 5624 5622 5620 5618 5616 5614 5613 5611 5609 5608 5606
5609 5610 5611 5612 5612 5613 5613 5614 5616 5617 5618 5620 5621 5623 5625 5628 5629 5631 5633 5635 5636 5639 5641 5641 5640 5640 5640 5641 5643 5643 5644 5645 5646 5647 5647 5648 5648 5649 5650 5651 5651 5651 5651 5650 5650 5650 5650 5649 5649 5649 5648 5647 5646 5645 5644 5642 5641 5640 5639 5637 5636 5634 5633 5631 5630 5629 5627 5626 5625 5624 5622 5621 5620 5618 5616 5614 5612 5610 5609 5607 5605 5603 5602 5600 5599
5599 5600 5601 5602 5603 5603 5604 5605 5606 5607 5609 5611 5612 5614 5616 5618 5620 5622 5624 5626 5628 5629 5631 5632 5633 5633 5634 5634 5635 5636 5638 5639 5640 5641 5640 5641 5642 5642 5643 5643 5644 5644 5644 5644 5644 5643 5643 5643 5642 5641 5640 5640 5639 5637 5636 5635 5634 5632 5631 5629 5628 5626 5625 5624 5623 5621 5620 5619 5618 5617 5615 5614 5612 5610 5609 5607 5605 5603 5601 5600 5598 5596 5594 5593 5591
5590 5591 5591 5592 5593 5594 5595 5596 5597 5597 5599 5601 5603 5605 5606 5608 5610 5613 5615 5617 5619 5620 5622 5623 5625 5626 5627 5628 5628 5630 5632 5633 5634 5633 5633 5634 5635 5635 5636 5637 5637 5637 5637 5637 5637 5637 5636 5635 5635 5634 5633 5632 5631 5630 5629 5627 5626 5624 5623 5622 5620 5619 5618 5617 5616 5615 5614 5613 5612 5610 5609 5607 5605 5603 5602 5600 5598 5596 5594 5593 5591 5589 5586 5585 5583
5579 5580 5580 5581 5582 5583 5585 5586 5587 5588 5589 5591 5593 5595 5597 5598 5600 5603 5606 5608 5609 5611 5613 5615 5616 5618 5619 5620 5621 5623 5625 5626 5626 5626 5626 5626 5627 5628 5629 5629 5630 5630 5630 5631 5630 5630 5629 5628 5628 5627 5626 5625 5624 5622 5621 5620 5618 5617 5616 5615 5614 5613 5612 5611 5610 5609 5608 5607 5605 5604 5602 5600 5598 5596 5595 5593 5590 5588 5586 5585 5583 5581 5579 5577 5575
5567 5568 5569 5569 5570 5572 5573 5574 5576 5578 5579 5581 5584 5585 5588 5591 5592 5593 5595 5598 5600 5602 5604 5606 5608 5609 5610 5611 5613 5615 5616 5618 5619 5618 5618 5619 5620 5621 5622 5622 5623 5623 5624 5623 5623 5623 5622 5621 5620 5619 5618 5617 5616 5615 5613 5612 5611 5610 5609 5608 5607 5607 5606 5605 5604 5603 5602 5600 5599 5597 5595 5594 5592 5590 5587 5585 5583 5581 5579 5577 5575 5573 5571 5568 5566
5555 5556 5557 5558 5559 5560 5561 5562 5564 5566 5568 5571 5574 5575 5578 5582 5583 5583 5586 5590 5591 5593 5596 5597 5600 5601 5602 5603 5605 5607 5609 5611 5612 5611 5611 5612 5613 5614 5615 5616 5616 5617 5617 5617 5617 5616 5615 5614 5613 5611 5610 5609 5608 5607 5606 5605 5604 5603 5602 5602 5601 5601 5600 5599 5598 5597 5595 5594 5593 5591 5589 5587 5585 5583 5581 5579 5576 5574 5572 5570 5568 5565 5563 5560 5557
5544 5544 5545 5546 5548 5548 5549 5550 5553 5554 5556 5559 5562 5564 5568 5572 5573 5575 5579 5582 5583 5585 5588 5590 5592 5594 5595 5595 5597 5600 5602 5604 5605 5605 5605 5605 5606 5607 5608 5609 5610 5611 5611 5611 5610 5609 5608 5606 5605 5604 5603 5602 5601 5600 5599 5598 5598 5597 5597 5596 5596 5595 5594 5593 5592 5591 5589 5588 5587 5585 5583 5581 5579 5577 5574 5572 5570 5568 5565 5563 5560 5557 5554 5552 5550
5532 5532 5532 5533 5535 5536 5537 5538 5540 5542 5544 5547 5549 5552 5556 5560 5563 5566 5569 5572 5574 5577 5580 5583 5585 5587 5588 5589 5590 5593 5595 5597 5599 5599 5598 5598 5599 5600 5601 5603 5604 5604 5604 5604 5602 5601 5600 5599 5598 5597 5596 5595 5595 5594 5593 5593 5592 5592 5592 5592 5591 5590 5589 5588 5586 5585 5584 5583 5581 5580 5578 5576 5573 5571 5568 5566 5564 5561 5558 5555 5552 5550 5547 5545 5543
5519 5520 5519 5520 5521 5523 5524 5526 5527 5529 5532 5535 5538 5540 5544 5548 5552 5556 5559 5561 5564 5567 5571 5575 5577 5580 5582 5583 5584 5586 5588 5589 5590 5590 5590 5590 5592 5594 5595 5597 5597 5598 5597 5596 5595 5594 5593 5592 5592 5591 5590 5590 5589 5588 5588 5588 5588 5588 5587 5586 5586 5585 5583 5582 5582 5581 5580 5578 5577 5575 5573 5570 5567 5565 5562 5560 5557 5553 5550 5548 5546 5544 5542 5540 5539
5507 5508 5508 5508 5509 5509 5511 5514 5515 5517 5519 5523 5526 5529 5533 5536 5540 5545 5548 5551 5554 5557 5560 5565 5568 5570 5573 5576 5576 5577 5579 5581 5581 5582 5583 5584 5586 5588 5590 5591 5592 5591 5591 5589 5588 5587 5587 5586 5586 5585 5585 5584 5584 5584 5584 5583 5583 5583 5582 5581 5581 5580 5579 5578 5578 5577 5576 5574 5573 5570 5567 5564 5561 5558 5556 5553 5550 5547 5544 5543 5541 5539 5538 5537 5535
5497 5498 5498 5499 5499 5499 5500 5502 5504 5506 5508 5510 5514 5518 5522 5525 5529 5534 5538 5540 5543 5546 5550 5555 5558 5562 5565 5567 5568 5569 5571 5573 5574 5575 5577 5579 5581 5583 5584 5585 5585 5585 5585 5583 5582 5582 5581 5581 5581 5580 5580 5580 5579 5579 5579 5579 5579 5578 5578 5577 5576 5576 5575 5575 5574 5573 5572 5571 5568 5565 5562 5558 5555 5552 5549 5546 5544 5542 5540 5539 5537 5536 5535 5533 5531
5490 5490 5491 5491 5491 5492 5492 5493 5494 5496 5498 5500 5503 5507 5511 5514 5517 5522 5526 5529 5533 5537 5541 5546 5550 5553 5555 5558 5560 5562 5564 5566 5567 5569 5571 5573 5575 5577 5578 5578 5579 5580 5579 5578 5577 5577 5576 5576 5576 5575 5575 5575 5575 5575 5575 5575 5574 5574 5573 5573 5573 5572 5572 5572 5571 5570 5569 5567 5564 5560 5556 5553 5550 5547 5544 5541 5539 5538 5537 5536 5534 5533 5532 5530 5528
5485 5485 5484 5484 5484 5485 5485 5485 5487 5488 5490 5492 5494 5497 5501 5504 5508 5512 5515 5518 5523 5528 5533 5537 5541 5544 5548 5551 5552 5554 5556 5558 5560 5562 5565 5567 5569 5570 5571 5573 5573 5574 5573 5573 5572 5572 5572 5571 5571 5571 5571 5571 5571 5571 5571 5570 5570 5570 5570 5570 5570 5570 5570 5569 5568 5567 5565 5563 5560 5555 5551 5547 5544 5542 5539 5537 5536 5535 5534 5532 5531 5530 5529 5527 5525
5482 5481 5480 5479 5478 5478 5478 5479 5480 5481 5483 5485 5487 5490 5493 5496 5500 5503 5506 5509 5514 5520 5524 5528 5533 5538 5543 5545 5545 5546 5549 5551 5552 5555 5558 5560 5562 5564 5565 5566 5567 5568 5568 5568 5567 5567 5567 5567 5567 5566 5566 5566 5567 5566 5566 5566 5566 5566 5567 5567 5567 5567 5567 5566 5565 5564 5562 5559 5556 5551 5546 5542 5540 5537 5535 5534 5533 5532 5531 5530 5529 5527 5526 5525 5523
5480 5478 5476 5474 5473 5472 5472 5473 5474 5475 5477 5479 5481 5484 5487 5490 5493 5495 5498 5502 5507 5511 5516 5520 5526 5533 5538 5540 5540 5541 5543 5544 5546 5548 5551 5553 5556 5558 5559 5560 5561 5562 5562 5562 5562 5562 5562 5562 5562 5562 5562 5562 5562 5562 5562 5563 5563 5564 5564 5565 5565 5565 5565 5564 5563 5561 5559 5556 5552 5547 5542 5538 5536 5534 5533 5532 5531 5530 5529 5528 5526 5525 5524 5522 5520
5478 5475 5473 5470 5468 5467 5467 5468 5469 5470 5471 5473 5475 5478 5481 5484 5487 5489 5492 5496 5500 5504 5509 5514 5519 5525 5530 5533 5534 5535 5536 5537 5539 5542 5545 5547 5550 5552 5553 5554 5556 5556 5557 5557 5557 5557 5558 5558 5558 5558 5558 5559 5559 5559 5559 5560 5561 5562 5562 5562 5563 5563 5562 5561 5560 5558 5556 5553 5549 5544 5539 5535 5533 5532 5531 5530 5529 5528 5527 5526 5525 5523 5522 5520 5518
5476 5472 5469 5466 5463 5462 5462 5463 5464 5466 5467 5468 5470 5472 5475 5477 5481 5484 5487 5490 5493 5497 5503 5508 5513 5518 5523 5525 5527 5529 5530 5531 5534 5536 5539 5542 5544 5546 5547 5549 5550 5550 5551 5552 5552 5553 5553 5553 5554 5554 5555 5555 5555 5556 5557 5558 5559 5559 5560 5560 5560 5560 5559 5559 5557 5556 5553 5550 5547 5542 5537 5533 5531 5530 5530 5529 5528 5527 5526 5524 5523 5522 5520 5519 5517
5473 5469 5465 5461 5458 5458 5459 5460 5461 5462 5463 5464 5466 5467 5469 5472 5475 5478 5481 5484 5487 5491 5496 5501 5508 5514 5517 5519 5521 5523 5524 5526 5528 5531 5534 5536 5538 5540 5542 5543 5544 5545 5546 5547 5548 5548 5549 5549 5550 5551 5551 5552 5553 5554 5555 5556 5556 5557 5558 5558 5558 5558 5557 5556 5555 5553 5551 5549 5545 5541 5536 5532 5530 5529 5528 5527 5527 5525 5524 5523 5522 5520 5519 5517 5515
5472 5467 5463 5459 5457 5457 5457 5458 5459 5460 5461 5461 5462 5464 5465 5467 5470 5473 5476 5479 5482 5486 5490 5496 5503 5508 5510 5512 5514 5516 5519 5521 5524 5526 5528 5530 5533 5535 5536 5537 5539 5540 5541 5543 5543 5544 5545 5546 5547 5547 5548 5549 5550 5552 5553 5553 5554 5555 5555 5556 5556 5555 5555 5554 5553 5551 5549 5547 5544 5540 5536 5532 5529 5527 5527 5526 5525 5524 5523 5522 5520 5519 5517 5515 5514
5471 5466 5462 5460 5459 5458 5458 5458 5458 5459 5459 5459 5460 5461 5462 5464 5466 5469 5471 5474 5478 5482 5487 5493 5499 5503 5505 5507 5509 5511 5514 5517 5519 5521 5523 5525 5527 5529 5530 5532 5534 5535 5537 5538 5539 5540 5541 5543 5544 5544 5546 5547 5548 5549 5550 5551 5552 5552 5553 5553 5553 5553 5552 5551 5550 5549 5547 5545 5542 5539 5536 5532 5528 5526 5525 5524 5524 5522 5521 5520 5519 5517 5516 5514 5512
5471 5467 5464 5461 5460 5459 5458 5458 5458 5458 5458 5458 5459 5459 5460 5461 5463 5465 5468 5471 5475 5479 5483 5489 5495 5499 5502 5503 5504 5507 5510 5513 5515 5516 5518 5520 5522 5523 5525 5527 5529 5531 5533 5534 5535 5537 5538 5540 5541 5542 5543 5545 5546 5547 5548 5549 5549 5550 5550 5551 5550 5550 5550 5549 5548 5547 5545 5543 5541 5539 5536 5532 5529 5526 5524 5523 5522 5521 5520 5519 5517 5516 5514 5513 5511
5473 5470 5466 5463 5461 5459 5458 5457 5457 5457 5457 5457 5457 5457 5458 5459 5460 5463 5465 5468 5472 5476 5480 5485 5490 5495 5497 5499 5501 5504 5507 5509 5510 5512 5513 5515 5517 5519 5521 5524 5526 5527 5529 5531 5532 5534 5536 5537 5538 5540 5541 5542 5543 5544 5545 5546 5547 5548 5548 5548 5548 5548 5548 5547 5546 5545 5544 5542 5540 5538 5535 5532 5530 5527 5524 5522 5521 5520 5519 5517 5516 5515 5513 5512 5510
5475 5472 5469 5466 5463 5461 5459 5458 5457 5457 5456 5455 5455 5455 5455 5456 5458 5460 5463 5466 5469 5473 5478 5483 5488 5492 5494 5497 5499 5502 5503 5504 5506 5507 5509 5511 5513 5516 5518 5521 5523 5524 5526 5528 5530 5532 5534 5535 5537 5538 5539 5540 5541 5542 5543 5544 5545 5545 5545 5545 5545 5546 5545 5545 5544 5543 5542 5540 5539 5537 5534 5532 5530 5527 5525 5522 5520 5519 5517 5516 5515 5513 5512 5511 5509
5476 5474 5471 5469 5466 5464 5462 5460 5459 5458 5456 5455 5454 5454 5456 5457 5459 5462 5465 5467 5470 5474 5479 5485 5489 5492 5494 5496 5498 5499 5500 5501 5503 5504 5506 5508 5511 5514 5516 5518 5520 5522 5524 5527 5529 5530 5531 5533 5535 5536 5537 5538 5539 5540 5541 5541 5542 5543 5543 5543 5543 5543 5543 5543 5542 5541 5540 5539 5537 5535 5533 5532 5529 5527 5525 5523 5520 5518 5516 5515 5513 5512 5510 5509 5508
5478 5476 5474 5472 5470 5467 5465 5463 5462 5460 5459 5457 5456 5457 5459 5462 5464 5467 5469 5472 5475 5478 5482 5486 5490 5491 5493 5495 5496 5497 5498 5500 5501 5503 5505 5507 5510 5512 5514 5516 5519 5521 5523 5525 5527 5528 5530 5531 5533 5534 5535 5536 5537 5538 5538 5539 5540 5540 5541 5541 5541 5541 5541 5541 5540 5539 5538 5537 5535 5534 5532 5530 5529 5527 5525 5523 5521 5519 5516 5514 5512 5510 5509 5507 5506
5479 5477 5476 5474 5472 5470 5469 5467 5465 5464 5463 5462 5461 5463 5465 5467 5469 5471 5473 5476 5479 5482 5485 5487 5489 5491 5492 5493 5495 5497 5498 5499 5501 5503 5505 5507 5509 5511 5513 5515 5518 5520 5521 5523 5525 5527 5528 5529 5530 5532 5533 5534 5534 5535 5536 5537 5537 5538 5538 5539 5539 5539 5539 5538 5538 5537 5536 5535 5534 5532 5531 5529 5527 5525 5524 5522 5520 5518 5516 5514 5511 5509 5507 5506 5504
5480 5479 5477 5476 5474 5473 5472 5470 5469 5468 5467 5467 5467 5468 5470 5471 5473 5475 5477 5479 5481 5483 5486 5487 5489 5490 5491 5493 5494 5496 5498 5499 5501 5503 5505 5506 5508 5511 5513 5515 5516 5518 5520 5522 5523 5525 5526 5527 5528 5530 5530 5531 5532 5533 5533 5534 5535 5535 5536 5536 5536 5536 5536 5536 5536 5535 5534 5533 5532 5530 5529 5527 5526 5524 5522 5521 5519 5518 5516 5514 5511 5509 5506 5504 5503
5481 5480 5478 5477 5476 5475 5474 5473 5472 5472 5472 5472 5472 5472 5473 5474 5476 5477 5479 5481 5482 5484 5486 5487 5488 5490 5491 5493 5494 5496 5498 5499 5501 5503 5504 5506 5508 5510 5512 5513 5515 5517 5519 5520 5522 5523 5525 5526 5527 5527 5528 5529 5530 5530 5531 5531 5532 5533 5533 5533 5534 5534 5534 5534 5533 5533 5532 5531 5530 5529 5527 5526 5525 5523 5521 5520 5518 5517 5515 5514 5512 5509 5506 5504 5502